Location: Huntsville
(41.2590°N, 111.7678°W)
Time: 04:56:03
(UTC+00:00)

N. Korean satellite - Pass Details

Date: 08 December 2021
Orbit: 447 x 491 km, 97.3° (Epoch: 25 January)

Event Time Altitude Azimuth Distance (km) Brightness Sun altitude
Rises 12:19:55 0° 19° (NNE) 2,457 10.3 -25.6°
Reaches altitude 10° 12:22:02 10° 27° (NNE) 1,580 9.3 -25.2°
Maximum altitude 12:25:15 40° 99° (E) 671 7.7 -24.6°
Drops below altitude 10° 12:28:27 10° 170° (S) 1,573 9.4 -24.0°
Sets 12:30:33 0° 178° (S) 2,444 10.3 -23.6°
